User: anonymous   Login
Location: B
(0.0000°N, 0.0000°E)
Time: 11:31:19
(UTC+02:00)
Language:

Cosmos 1025 Rocket - Orbit

View from above orbital plane
View from above orbital plane
View from above satellite
View from above satellite

Ground track
Ground track

The orbit data is extracted from the following two-line orbital elements,

1 10974U 78067B   17117.83727299 +.00000134 +00000-0 +12037-4 0  9998
2 10974 082.4846 216.8791 0018323 146.2169 214.0220 14.87226010100075
Epoch (UTC): 27 April 2017 20:05:40
Eccentricity: 0.0018323
inclination: 82.4846°
perigee height: 594 km
apogee height: 619 km
right ascension of ascending node: 216.8791°
argument of perigee: 146.2169°
revolutions per day: 14.87226010
mean anomaly at epoch: 214.0220°
orbit number at epoch: 10007

The dashed part of the orbit path shows where the satellite is in the earth's shadow,  

DLR